Weather History for Branson, MO

Change the Weather History Date:

Monday, September 30, 2013

  Actual Average (KHRO) Record (KHRO)
Temperature  
Mean Temperature 68 °F 64 °F  
Max Temperature 77 °F 75 °F 94 °F (1953)
Min Temperature 60 °F 52 °F 31 °F (1949)
Degree Days  
Heating Degree Days 0 4  
Month to date heating degree days 42  
Since 1 July heating degree days 43  
Cooling Degree Days 4 2  
Month to date cooling degree days 168  
Year to date cooling degree days 1379  
Growing Degree Days 18 (Base 50)    
Moisture  
Dew Point 63 °F    
Average Humidity 92    
Maximum Humidity 100    
Minimum Humidity 61    
Precipitation  
Precipitation 0.00 in 0.12 in 2.32 in (1927)
Month to date precipitation 4.20  
Year to date precipitation 33.16  
Snow  
Snow 0.00 in 0.00 in - ()
Month to date snowfall 0.0  
Since 1 July snowfall 0.0  
Since 1 September snowfall 0.0  
Snow Depth -    
Sea Level Pressure  
Sea Level Pressure 29.95 in    
Wind  
Wind Speed 3 mph (SE)    
Max Wind Speed 10 mph    
Max Gust Speed -    
Visibility 6 miles    
Events Fog    
T = Trace of Precipitation, MM = Missing Value Source: NWS Daily Summary

Daily Weather History Graph

Daily Weather History Graph

Search for Another Location

Airport:

Trip Planner

Search our weather history database for the weather conditions in past years. The results will help you decide how hot, cold, wet, or windy it might be!

Date:

Astronomy

Sep. 30, 2013 Rise Set
Actual Time 7:07 AM CDT 6:57 PM CDT
Civil Twilight 6:41 AM CDT 7:23 PM CDT
Nautical Twilight 6:11 AM CDT 7:52 PM CDT
Astronomical Twilight 5:41 AM CDT 8:23 PM CDT
Moon 2:51 AM CDT (9/30) 4:23 PM CDT (9/30)
Length of Visible Light 12h 41m
Length of Day
11h 49m
Waning Crescent, 19% of the Moon is Illuminated
Sep 30
Waning Crescent
Oct 4
New
Oct 11
First Quarter
Oct 18
Full
Oct 26
Last Quarter

Hourly Weather History & Observations

Time (CDT) Temp. Dew Point Humidity Pressure Visibility Wind Dir Wind Speed Gust Speed Precip Events Conditions
12:15 AM 60.8 °F 60.8 °F 100% 29.98 in 9.0 mi Calm Calm - N/A   Mostly Cloudy
12:35 AM 62.6 °F 62.6 °F 100% 29.98 in 10.0 mi Calm Calm - N/A   Overcast
12:55 AM 62.6 °F 62.6 °F 100% 29.98 in 0.5 mi Calm Calm - N/A Fog Fog
1:15 AM 62.6 °F 62.6 °F 100% 29.98 in 0.2 mi Calm Calm - N/A Fog Fog
1:35 AM 62.6 °F 62.6 °F 100% 29.97 in 0.2 mi Calm Calm - N/A Fog Fog
1:55 AM 62.6 °F 62.6 °F 100% 29.97 in 0.2 mi Calm Calm - N/A Fog Fog
2:15 AM 62.6 °F 62.6 °F 100% 29.97 in 0.2 mi Calm Calm - N/A Fog Fog
2:35 AM 62.6 °F 62.6 °F 100% 29.97 in 0.2 mi Calm Calm - N/A Fog Fog
2:55 AM 62.6 °F 62.6 °F 100% 29.97 in 0.2 mi Calm Calm - N/A Fog Fog
3:15 AM 62.6 °F 62.6 °F 100% 29.95 in 0.2 mi Calm Calm - N/A Fog Fog
3:35 AM 62.6 °F 62.6 °F 100% 29.96 in 0.2 mi Calm Calm - N/A Fog Fog
3:55 AM 62.6 °F 62.6 °F 100% 29.95 in 0.2 mi SE 8.1 mph - N/A Fog Fog
4:15 AM 62.6 °F 62.6 °F 100% 29.95 in 0.2 mi SSE 6.9 mph - N/A Fog Fog
4:35 AM 62.6 °F 62.6 °F 100% 29.95 in 0.5 mi SE 6.9 mph - N/A Fog Fog
4:55 AM 62.6 °F 62.6 °F 100% 29.96 in 0.5 mi SSE 5.8 mph - N/A Fog Fog
5:15 AM 62.6 °F 62.6 °F 100% 29.96 in 1.0 mi SSE 8.1 mph - N/A   Overcast
5:35 AM 62.6 °F 62.6 °F 100% 29.96 in 1.2 mi SSE 6.9 mph - N/A   Overcast
5:55 AM 62.6 °F 62.6 °F 100% 29.96 in 1.2 mi SSE 3.5 mph - N/A   Overcast
6:15 AM 62.6 °F 62.6 °F 100% 29.97 in 2.5 mi SSE 3.5 mph - N/A   Overcast
6:35 AM 62.6 °F 62.6 °F 100% 29.97 in 5.0 mi SSE 4.6 mph - N/A   Overcast
6:53 AM 62.6 °F 62.6 °F 100% 29.97 in 5.0 mi SSE 6.9 mph - N/A   Overcast
7:54 AM 62.6 °F 62.6 °F 100% 29.98 in 5.0 mi ESE 3.5 mph - N/A   Overcast
8:47 AM 62.6 °F 62.6 °F 100% 29.98 in 2.0 mi SE 5.8 mph - N/A   Overcast
9:50 AM 64.4 °F 64.4 °F 100% 29.98 in 2.0 mi SE 6.9 mph - N/A   Overcast
10:46 AM 64.4 °F 64.4 °F 100% 29.99 in 4.0 mi South 5.8 mph - N/A   Overcast
11:45 AM 68.0 °F 64.4 °F 88% 29.97 in 10.0 mi SSE 9.2 mph - N/A   Overcast
12:16 PM 71.6 °F 62.6 °F 73% 29.97 in 10.0 mi SE 9.2 mph - N/A   Overcast
12:50 PM 71.6 °F 62.6 °F 73% 29.97 in 10.0 mi ESE 8.1 mph - N/A   Mostly Cloudy
1:45 PM 73.4 °F 64.4 °F 73% 29.94 in 10.0 mi SE 9.2 mph - N/A   Mostly Cloudy
2:45 PM 75.2 °F 62.6 °F 65% 29.92 in 10.0 mi SE 9.2 mph - N/A   Mostly Cloudy
3:45 PM 77.0 °F 62.6 °F 61% 29.91 in 10.0 mi South 6.9 mph - N/A   Mostly Cloudy
4:46 PM 77.0 °F 62.6 °F 61% 29.90 in 10.0 mi ESE 10.4 mph - N/A   Mostly Cloudy
5:45 PM 77.0 °F 64.4 °F 65% 29.90 in 10.0 mi ESE 6.9 mph - N/A   Mostly Cloudy
6:45 PM 71.6 °F 64.4 °F 78% 29.91 in 10.0 mi SE 6.9 mph - N/A   Mostly Cloudy
7:45 PM 69.8 °F 64.4 °F 83% 29.92 in 10.0 mi ESE 6.9 mph - N/A   Mostly Cloudy
8:45 PM 68.0 °F 64.4 °F 88% 29.93 in 10.0 mi SE 6.9 mph - N/A   Mostly Cloudy
9:15 PM 68.0 °F 64.4 °F 88% 29.94 in 10.0 mi Calm Calm - N/A   Clear
9:35 PM 68.0 °F 64.4 °F 88% 29.94 in 10.0 mi SE 8.1 mph - N/A   Partly Cloudy
9:55 PM 66.2 °F 64.4 °F 94% 29.94 in 10.0 mi SSE 4.6 mph - N/A   Clear
10:15 PM 66.2 °F 64.4 °F 94% 29.94 in 10.0 mi SE 4.6 mph - N/A   Clear
10:35 PM 66.2 °F 64.4 °F 94% 29.94 in 10.0 mi SE 6.9 mph - N/A   Scattered Clouds
10:55 PM 66.2 °F 64.4 °F 94% 29.94 in 10.0 mi SE 6.9 mph - N/A   Partly Cloudy
11:15 PM 66.2 °F 64.4 °F 94% 29.94 in 10.0 mi SE 6.9 mph - N/A   Clear
11:35 PM 66.2 °F 64.4 °F 94% 29.94 in 10.0 mi SE 6.9 mph - N/A   Clear
11:55 PM 66.2 °F 64.4 °F 94% 29.94 in 10.0 mi SSE 3.5 mph - N/A   Clear